Weather History for Clarion, IA

Change the Weather History Date:

Saturday, January 19, 2013

  Actual Average Record
Temperature  
Mean Temperature 29 °F -  
Max Temperature 48 °F 24 °F 50 °F (1981)
Min Temperature 10 °F 3 °F -30 °F (1970)
Degree Days  
Heating Degree Days 36    
Moisture  
Dew Point 24 °F    
Average Humidity 73    
Maximum Humidity 93    
Minimum Humidity 53    
Precipitation  
Precipitation 0.00 in - - ()
Sea Level Pressure  
Sea Level Pressure 29.93 in    
Wind  
Wind Speed 14 mph (WNW)    
Max Wind Speed 37 mph    
Max Gust Speed 47 mph    
Visibility 10 miles    
Events Snow    
Averages and records for this station are not official NWS values.
T = Trace of Precipitation, MM = Missing Value Source: NWS Daily Summary

Daily Weather History Graph

Daily Weather History Graph

Search for Another Location

Airport:

Trip Planner

Search our weather history database for the weather conditions in past years. The results will help you decide how hot, cold, wet, or windy it might be!

Date:

Astronomy

Jan. 19, 2013 Rise Set
Actual Time 7:40 AM CST 5:11 PM CST
Civil Twilight 7:09 AM CST 5:42 PM CST
Nautical Twilight 6:34 AM CST 6:17 PM CST
Astronomical Twilight 6:01 AM CST 6:51 PM CST
Moon 11:40 AM CST (1/19) 1:13 AM CST (1/19)
Length of Visible Light 10h 33m
Length of Day
9h 31m
First Quarter, 57% of the Moon is Illuminated
Jan 19
First Quarter
Jan 26
Full
Feb 3
Last Quarter
Feb 10
New
Feb 17
First Quarter

Hourly Weather History & Observations

Time (CST) Temp. Windchill Dew Point Humidity Pressure Visibility Wind Dir Wind Speed Gust Speed Precip Events Conditions
12:15 AM 30.2 °F 26.7 °F 28.4 °F 93% 29.83 in 10.0 mi South 3.5 mph - N/A   Clear
12:35 AM 30.2 °F 23.4 °F 28.4 °F 93% 29.82 in 10.0 mi South 6.9 mph - N/A   Clear
12:55 AM 32.0 °F 25.6 °F 28.4 °F 87% 29.82 in 10.0 mi South 6.9 mph - N/A   Partly Cloudy
1:15 AM 32.0 °F 24.2 °F 28.4 °F 87% 29.81 in 10.0 mi South 9.2 mph - N/A   Mostly Cloudy
1:35 AM 32.0 °F 24.8 °F 28.4 °F 87% 29.81 in 10.0 mi South 8.1 mph - N/A   Mostly Cloudy
1:55 AM 32.0 °F 24.2 °F 28.4 °F 87% 29.82 in 10.0 mi SSW 9.2 mph - N/A   Overcast
2:15 AM 32.0 °F 24.2 °F 30.2 °F 93% 29.82 in 10.0 mi South 9.2 mph - N/A   Overcast
2:35 AM 32.0 °F 24.2 °F 28.4 °F 87% 29.82 in 10.0 mi South 9.2 mph - N/A   Partly Cloudy
2:55 AM 32.0 °F 24.8 °F 28.4 °F 87% 29.81 in 10.0 mi South 8.1 mph - N/A   Scattered Clouds
3:15 AM 30.2 °F 21.9 °F 28.4 °F 93% 29.80 in 10.0 mi South 9.2 mph - N/A   Mostly Cloudy
3:35 AM 32.0 °F 24.8 °F 28.4 °F 87% 29.79 in 10.0 mi South 8.1 mph - N/A   Mostly Cloudy
3:55 AM 32.0 °F 23.6 °F 28.4 °F 87% 29.79 in 10.0 mi South 10.4 mph - N/A   Mostly Cloudy
4:15 AM 32.0 °F 24.2 °F 28.4 °F 87% 29.78 in - SSW 9.2 mph - N/A   Mostly Cloudy
4:35 AM 32.0 °F 23.6 °F 28.4 °F 87% 29.78 in 10.0 mi SSW 10.4 mph - N/A   Mostly Cloudy
4:55 AM 32.0 °F 23.0 °F 30.2 °F 93% 29.77 in 10.0 mi South 11.5 mph - N/A   Overcast
5:15 AM 32.0 °F 24.2 °F 30.2 °F 93% 29.78 in 10.0 mi SSW 9.2 mph - N/A   Overcast
5:35 AM 33.8 °F 27.0 °F 30.2 °F 87% 29.79 in 10.0 mi SW 8.1 mph - N/A   Overcast
5:55 AM 33.8 °F 25.8 °F 30.2 °F 87% 29.78 in 10.0 mi SSW 10.4 mph - N/A   Overcast
6:35 AM 33.8 °F 25.8 °F 30.2 °F 87% 29.78 in 10.0 mi SSW 10.4 mph - N/A   Overcast
6:55 AM 32.0 °F 24.2 °F 30.2 °F 93% 29.78 in 10.0 mi SSW 9.2 mph - N/A   Overcast
7:15 AM 32.0 °F 24.8 °F 30.2 °F 93% 29.78 in 10.0 mi SW 8.1 mph - N/A   Overcast
7:55 AM 33.8 °F 27.7 °F 28.4 °F 81% 29.79 in 10.0 mi SW 6.9 mph - N/A   Overcast
8:15 AM 32.0 °F 24.8 °F 28.4 °F 87% 29.80 in 10.0 mi WSW 8.1 mph - N/A   Mostly Cloudy
8:35 AM 32.0 °F 24.8 °F 28.4 °F 87% 29.79 in 10.0 mi SW 8.1 mph - N/A   Partly Cloudy
9:55 AM 41.0 °F 32.2 °F 30.2 °F 65% 29.81 in 10.0 mi West 18.4 mph - N/A   Clear
10:15 AM 41.0 °F 32.5 °F 30.2 °F 65% 29.83 in 10.0 mi WNW 17.3 mph 24.2 mph N/A   Clear
10:35 AM 41.0 °F 32.8 °F 30.2 °F 65% 29.83 in 10.0 mi WNW 16.1 mph 26.5 mph N/A   Clear
10:55 AM 42.8 °F 34.8 °F 30.2 °F 61% 29.83 in 10.0 mi WNW 17.3 mph 24.2 mph N/A   Clear
11:15 AM 44.6 °F 36.1 °F 32.0 °F 61% 29.83 in 10.0 mi WNW 21.9 mph - N/A   Clear
11:35 AM 44.6 °F 36.1 °F 32.0 °F 61% 29.83 in 10.0 mi NW 21.9 mph 27.6 mph N/A   Clear
11:55 AM 44.6 °F 36.9 °F 32.0 °F 61% 29.83 in 10.0 mi NW 18.4 mph 26.5 mph N/A   Clear
12:15 PM 44.6 °F 36.1 °F 32.0 °F 61% 29.83 in 10.0 mi NW 21.9 mph - N/A   Clear
12:35 PM 46.4 °F 39.0 °F 32.0 °F 57% 29.83 in 10.0 mi NW 19.6 mph - N/A   Clear
12:55 PM 46.4 °F 39.0 °F 32.0 °F 57% 29.83 in 10.0 mi WNW 19.6 mph - N/A   Clear
1:15 PM 48.2 °F - 32.0 °F 54% 29.83 in 10.0 mi WNW 18.4 mph 25.3 mph N/A   Clear
1:35 PM 48.2 °F - 32.0 °F 54% 29.84 in 10.0 mi NW 18.4 mph 28.8 mph N/A   Clear
1:55 PM 48.2 °F - 32.0 °F 54% 29.85 in 10.0 mi NW 23.0 mph 29.9 mph N/A   Clear
2:15 PM 48.2 °F - 32.0 °F 54% 29.86 in 10.0 mi WNW 26.5 mph 32.2 mph N/A   Clear
2:35 PM 48.2 °F - 32.0 °F 54% 29.87 in 10.0 mi WNW 23.0 mph 32.2 mph N/A   Clear
2:55 PM 46.4 °F 38.1 °F 32.0 °F 57% 29.88 in 10.0 mi NW 24.2 mph 31.1 mph N/A   Partly Cloudy
3:15 PM 46.4 °F 37.9 °F 30.2 °F 53% 29.90 in 10.0 mi NW 25.3 mph 33.4 mph N/A   Partly Cloudy
3:35 PM 44.6 °F 35.5 °F 30.2 °F 57% 29.91 in 10.0 mi NW 25.3 mph 33.4 mph N/A   Mostly Cloudy
3:55 PM 42.8 °F - 30.2 °F 61% 29.92 in 10.0 mi North - - N/A   Overcast
4:15 PM 41.0 °F 30.5 °F 30.2 °F 65% 29.93 in 10.0 mi WNW 26.5 mph - N/A   Mostly Cloudy
4:35 PM 41.0 °F 30.9 °F 30.2 °F 65% 29.95 in 10.0 mi WNW 24.2 mph 34.5 mph N/A   Mostly Cloudy
4:55 PM 39.2 °F 28.5 °F 28.4 °F 65% 29.96 in 10.0 mi NW 24.2 mph 33.4 mph N/A   Mostly Cloudy
5:15 PM 33.8 °F 21.9 °F 28.4 °F 81% 29.98 in 10.0 mi NNW 21.9 mph 41.4 mph N/A   Overcast
5:35 PM 32.0 °F 18.6 °F 26.6 °F 80% 30.00 in 10.0 mi NNW 25.3 mph 32.2 mph N/A   Overcast
5:55 PM 30.2 °F 16.8 °F 26.6 °F 86% 30.01 in 10.0 mi NNW 23.0 mph 31.1 mph N/A   Mostly Cloudy
6:15 PM 30.2 °F 15.9 °F 24.8 °F 80% 30.02 in 10.0 mi NW 26.5 mph - N/A   Partly Cloudy
6:35 PM 28.4 °F 13.5 °F 23.0 °F 80% 30.05 in 10.0 mi NNW 26.5 mph 38.0 mph N/A   Mostly Cloudy
6:55 PM 24.8 °F 9.3 °F 17.6 °F 74% 30.08 in 10.0 mi NNW 24.2 mph 38.0 mph N/A   Overcast
7:15 PM 23.0 °F 6.9 °F 15.8 °F 74% 30.09 in 10.0 mi NNW 24.2 mph 36.8 mph N/A   Scattered Clouds
7:35 PM 23.0 °F 6.0 °F 14.0 °F 68% 30.12 in 10.0 mi NNW 27.6 mph 39.1 mph N/A   Mostly Cloudy
7:55 PM 21.2 °F 4.2 °F 12.2 °F 68% 30.13 in 10.0 mi NNW 25.3 mph 36.8 mph N/A Snow Light Snow
8:15 PM 19.4 °F -1.1 °F 10.4 °F 68% 30.14 in 10.0 mi NW 36.8 mph 47.2 mph N/A   Mostly Cloudy
8:35 PM 17.6 °F -2.5 °F 5.0 °F 58% 30.15 in 10.0 mi NNW 32.2 mph 43.7 mph N/A   Scattered Clouds
8:55 PM 15.8 °F -4.7 °F 3.2 °F 58% 30.17 in 10.0 mi NW 31.1 mph 43.7 mph N/A   Clear
9:15 PM 15.8 °F -5.5 °F 3.2 °F 58% 30.18 in 10.0 mi NW 34.5 mph 42.6 mph N/A   Clear
9:35 PM 14.0 °F -7.4 °F 1.4 °F 57% 30.19 in 10.0 mi NNW 32.2 mph - N/A   Clear
9:55 PM 14.0 °F -6.2 °F 3.2 °F 62% 30.21 in 10.0 mi NW 27.6 mph 34.5 mph N/A   Clear
10:15 PM 12.2 °F -8.9 °F 1.4 °F 62% 30.22 in 10.0 mi NNW 28.8 mph 35.7 mph N/A   Clear
10:35 PM 12.2 °F -8.6 °F 1.4 °F 62% 30.23 in 10.0 mi NW 27.6 mph 35.7 mph N/A   Clear
10:55 PM 10.4 °F -10.7 °F -0.4 °F 62% 30.23 in 10.0 mi NW 26.5 mph - N/A   Clear
11:15 PM 10.4 °F -9.9 °F -0.4 °F 62% 30.23 in 10.0 mi NW 24.2 mph 32.2 mph N/A   Clear
11:35 PM 10.4 °F -9.5 °F 1.4 °F 67% 30.23 in 10.0 mi NW 23.0 mph - N/A   Clear
11:55 PM 10.4 °F -10.7 °F -0.4 °F 62% 30.24 in 10.0 mi NW 26.5 mph 32.2 mph N/A   Clear